Regional Weather Roundup
Issued by NWS

Home | Current Version | Previous Version | Graphics & Text | Print | Product List | Glossary On
Versions: 1 2 3 4 5 6 7 8 9 10 11 12 13 14 15 16 17 18 19 20 21 22 23 24 25 26 27 28 29 30 31 32 33 34 35 36 37 38 39 40 41 42 43 44 45 46 47 48 49 50
000
ASUS45 KSLC 040910
RWRUT

UTAH REGIONAL WEATHER ROUNDUP
NATIONAL WEATHER SERVICE SALT LAKE CITY UT
300 AM MDT MON MAY 04 2015

UTZ001>011-023>025-041000-

NORTHERN UTAH

CITY           SKY/WX    TMP DP  RH WIND       PRES   REMARKS
BRIGHAM CITY   MOCLDY    55  42  60 NW5       29.94R
HILL AFB       CLOUDY    59  41  50 SE10      29.94S
LOGAN          CLEAR     52  42  69 CALM      29.95R
OGDEN          CLOUDY    60  41  49 S10       29.92S
PROVO AIRPORT  CLOUDY    57  45  62 E12       29.97F
SALT LAKE CITY LGT RAIN  60  47  61 E16       29.93F
VERNAL         PTCLDY    50  37  61 W6        30.01S
WENDOVER       MOCLDY    57  36  44 CALM      29.91F
HEBER CITY     CLOUDY    52  41  66 SE3       30.02S
WEST JORDAN    CLOUDY    57  46  67 SE5       29.98S

$$

UTZ012>022-026-027-041000-

SOUTHERN/CENTRAL UTAH

CITY           SKY/WX    TMP DP  RH WIND       PRES   REMARKS
BLANDING       MOCLDY    49  37  62 N8        30.09F
BRYCE CANYON   MOCLDY    39  35  86 W6        30.08F WCI  35
CEDAR CITY     CLOUDY    54  38  54 VRB3      29.98R
DELTA          CLOUDY    58  41  52 S5        29.97F
HANKSVILLE     CLOUDY    55  37  50 SE5       29.95R
MILFORD        CLOUDY    59  38  45 VRB7      29.96F
MOAB/CYNLANDS  CLEAR     59  41  51 NE13      29.93S
PRICE          CLOUDY    54  40  59 N12       30.03R
ST GEORGE      CLOUDY    66  39  37 N8        29.90R
KANAB          MOCLDY    50  39  66 NW3       30.02F

$$

REGIONAL REPORTS     COLORADO/ARIZONA

CITY           SKY/WX    TMP DP  RH WIND       PRES   REMARKS
CRAIG, CO      CLOUDY    48  42  80 N5        30.06F
GRAND JUNCTION MOCLDY    55  42  61 E9        30.00S
RIFLE          MOCLDY    50  46  86 S3        30.06F
MONTROSE       PTCLDY    46  38  73 S5        30.06F
CORTEZ         CLEAR     43  36  76 E7        30.05S
PAGE, AZ       MOCLDY    61  39  44 SW6       29.94F
GRAND CANYON   CLEAR     33  31  92 CALM      30.06S
KINGMAN        CLEAR     63  39  41 SE10      29.88F
FLAGSTAFF      MOCLDY    40  35  83 S6        30.09R

$$

REGIONAL REPORTS    NEVADA/IDAHO/WYOMING

CITY           SKY/WX    TMP DP  RH WIND       PRES   REMARKS
LAS VEGAS, NV  PTCLDY    75  28  17 S9        29.74S
ELY            MOCLDY    51  35  54 S10       30.00F
ELKO           CLEAR     41  32  70 W3        29.94F
POCATELLO, ID  CLEAR     47  39  74 NW7       29.93S
BURLEY         CLEAR     50  41  71 N5        29.89F
EVANSTON, WY   MOCLDY    44  37  76 E9        30.07F
ROCK SPRINGS   PTCLDY    41  36  82 SE5       30.07F
KEMMERER       PTCLDY    36  36 100 N7        30.09F WCI  30

$$


USA.gov is the U.S. government's official web portal to all federal, state and local government web resources and services.